FW0392 Weather Reports


time (UTC)temp
C
wind
direction
speed
KPH
gust
KPH
rain 1hr
cm
rain 24hr
cm
rain mn
cm
humidity
%
barometer
mb
20260507221513 15 360 0.0 0.0 0.00 0.15 0.00 85 1013.0
20260507220004 15 18 0.0 0.0 0.00 0.15 0.15 85 1013.0
20260507214503 15 17 0.0 0.0 0.00 0.15 0.15 84 1013.0
20260507213003 16 360 0.0 0.0 0.00 0.15 0.15 83 1013.0
20260507211502 16 19 0.0 0.0 0.00 0.15 0.15 82 1013.0
20260507210105 16 19 0.0 0.0 0.00 0.15 0.15 82 1012.9
20260507204558 16 19 0.0 0.0 0.00 0.15 0.15 81 1013.0
20260507203109 16 21 0.0 0.0 0.00 0.15 0.15 80 1013.1
20260507201600 17 22 0.0 0.0 0.00 0.15 0.15 79 1013.1
20260507200026 17 20 0.0 0.0 0.00 0.15 0.15 79 1012.9
20260507194526 17 21 0.0 0.0 0.00 0.15 0.15 78 1013.0
20260507193022 17 22 0.0 0.0 0.00 0.15 0.15 78 1012.8
20260507191521 17 23 0.0 3.2 0.00 0.15 0.15 77 1012.7
20260507190021 18 24 0.0 0.0 0.00 0.15 0.15 76 1012.5
20260507184519 18 20 0.0 0.0 0.00 0.15 0.15 75 1012.4
20260507183018 18 22 0.0 0.0 0.00 0.15 0.15 74 1012.3
20260507181521 18 28 0.0 0.0 0.00 0.15 0.15 73 1012.3
20260507180022 19 22 0.0 0.0 0.00 0.15 0.15 72 1012.1
20260507174516 20 17 0.0 1.6 0.00 0.15 0.15 71 1012.0
20260507173027 20 184 0.0 3.2 0.00 0.15 0.15 70 1011.9
20260507171512 20 107 0.0 1.6 0.00 0.15 0.15 70 1012.0
20260507170012 20 334 0.0 1.6 0.00 0.15 0.15 71 1011.9
20260507164512 20 192 0.0 6.4 0.00 0.15 0.15 74 1011.9
20260507163011 20 5 0.0 4.8 0.00 0.15 0.15 75 1011.9
20260507161508 21 64 0.0 1.6 0.00 0.15 0.15 76 1011.9
20260507160008 21 91 0.0 9.7 0.00 0.15 0.15 73 1012.0
20260507154507 21 80 0.0 8.0 0.00 0.15 0.15 72 1012.0
20260507153036 21 101 0.0 4.8 0.00 0.15 0.15 71 1011.9
20260507151536 21 87 0.0 0.0 0.00 0.15 0.15 68 1012.0
20260507150012 21 27 0.0 9.7 0.00 0.15 0.15 65 1012.0
20260507144516 21 45 0.0 6.4 0.00 0.15 0.15 64 1012.1
20260507143003 21 16 0.0 6.4 0.00 0.15 0.15 63 1012.1
20260507141502 21 74 0.0 6.4 0.00 0.15 0.15 63 1012.1
20260507140002 21 27 0.0 8.0 0.00 0.15 0.15 63 1012.2
20260507134501 21 51 0.0 12.9 0.00 0.15 0.15 63 1012.3
20260507133133 21 40 0.0 4.8 0.00 0.15 0.15 64 1012.3
20260507131558 21 23 0.0 3.2 0.00 0.15 0.15 66 1012.3
20260507130108 20 14 0.0 8.0 0.00 0.15 0.15 67 1012.3
20260507124557 20 98 0.0 6.4 0.00 0.15 0.15 66 1012.3
20260507123055 20 74 1.6 8.0 0.00 0.15 0.15 65 1012.3
20260507121606 20 15 1.6 9.7 0.00 0.15 0.15 65 1012.4
20260507120100 20 85 0.0 9.7 0.00 0.15 0.15 64 1012.5
20260507114634 20 47 0.0 4.8 0.00 0.15 0.15 62 1012.5
20260507113050 20 35 0.0 14.5 0.00 0.15 0.15 62 1012.6
20260507111555 21 78 0.0 6.4 0.00 0.15 0.15 60 1012.6
20260507110049 21 19 0.0 4.8 0.00 0.15 0.15 64 1012.7
20260507104548 21 308 0.0 4.8 0.00 0.15 0.15 61 1012.7
20260507103044 21 21 0.0 3.2 0.00 0.15 0.15 61 1012.7
20260507101546 21 80 0.0 9.7 0.00 0.15 0.15 65 1012.8
20260507100042 20 97 0.0 4.8 0.00 0.15 0.15 66 1012.7
20260507094540 20 10 0.0 12.9 0.00 0.15 0.15 66 1012.7
20260507093041 20 333 1.6 9.7 0.00 0.15 0.15 72 1012.6
20260507091542 20 75 1.6 9.7 0.00 0.15 0.15 72 1012.5
20260507090037 21 34 0.0 6.4 0.00 0.15 0.15 65 1012.4
20260507084532 22 11 0.0 3.2 0.00 0.15 0.15 65 1012.4
20260507083032 22 82 0.0 6.4 0.00 0.15 0.15 61 1012.3
20260507081523 21 140 0.0 0.0 0.00 0.15 0.15 65 1012.0
20260507080023 20 126 0.0 0.0 0.00 0.15 0.15 69 1012.0
20260507074516 19 117 0.0 1.6 0.00 0.15 0.15 71 1012.1
20260507073014 19 221 0.0 3.2 0.00 0.15 0.15 72 1012.0
20260507071509 18 236 0.0 0.0 0.00 0.15 0.15 75 1012.2
20260507070010 17 226 0.0 0.0 0.00 0.15 0.15 81 1012.2
20260507064504 17 254 0.0 0.0 0.00 0.15 0.15 85 1012.0
20260507063005 16 193 0.0 0.0 0.00 0.15 0.15 88 1011.9
20260507061600 16 211 0.0 3.2 0.00 0.15 0.15 89 1012.1
20260507060058 15 202 0.0 0.0 0.00 0.15 0.15 90 1012.0
20260507054555 15 217 0.0 0.0 0.00 0.15 0.15 91 1012.0
20260507053052 15 174 0.0 0.0 0.00 0.15 0.15 91 1011.8
20260507051520 15 213 0.0 1.6 0.00 0.15 0.15 92 1011.5
20260507050020 15 210 0.0 0.0 0.00 0.15 0.15 92 1011.4
20260507044544 15 208 0.0 0.0 0.00 0.20 0.15 92 1011.1
20260507043043 15 209 0.0 0.0 0.00 0.20 0.15 92 1011.0
20260507041512 15 210 0.0 0.0 0.00 0.20 0.15 92 1011.1
20260507040011 15 211 0.0 0.0 0.00 0.20 0.15 91 1010.8
20260507034505 15 211 0.0 0.0 0.00 0.20 0.15 91 1010.8
20260507033005 15 212 0.0 0.0 0.00 0.20 0.15 91 1010.9
20260507031504 15 212 0.0 0.0 0.00 0.20 0.15 91 1010.9
20260507030002 15 212 0.0 0.0 0.00 0.20 0.15 90 1010.7
20260507024608 16 212 0.0 0.0 0.03 0.20 0.15 90 1010.8
20260507023057 16 212 0.0 0.0 0.05 0.20 0.15 89 1010.7
20260507021559 16 212 0.0 0.0 0.10 0.20 0.15 89 1010.5
20260507020109 16 212 0.0 0.0 0.15 0.20 0.15 88 1010.7
20260507014553 16 212 0.0 0.0 0.13 0.18 0.13 86 1010.8
20260507013054 17 212 0.0 0.0 0.10 0.15 0.10 85 1010.6
20260507011545 17 211 0.0 0.0 0.05 0.10 0.05 82 1010.7
20260507010045 17 162 0.0 1.6 0.00 0.05 0.00 80 1010.6
20260507004548 17 187 0.0 1.6 0.00 0.08 0.00 78 1010.5
20260507003044 18 216 0.0 0.0 0.00 0.08 0.00 77 1010.5
20260507001544 18 200 0.0 1.6 0.00 0.08 0.00 77 1010.4
20260507000035 18 222 0.0 3.2 0.00 0.08 0.00 76 1010.7
20260506234534 18 233 0.0 4.8 0.00 0.23 0.00 75 1010.8
20260506233029 18 191 0.0 1.6 0.00 0.23 0.00 74 1010.8
20260506231528 18 179 0.0 0.0 0.00 0.23 0.00 74 1010.8
20260506230027 18 198 0.0 0.0 0.00 0.23 0.00 73 1010.8
20260506224559 18 196 0.0 0.0 0.00 0.46 0.00 73 1010.8
20260506223055 18 242 0.0 0.0 0.00 0.46 0.00 71 1010.9